| time (UTC) | temp F | wind direction | speed knots | gust knots | rain 1hr in | rain 24hr in | rain mn in | humidity % | barometer mb |
| 20260504030219 | 42 | 324 | 0.0 | 0.0 | 0.00 | 0.00 | 0.00 | 79 | 1014.6 |
| 20260504025715 | 42 | 324 | 0.0 | 0.0 | 0.00 | 0.00 | 0.00 | 78 | 1014.5 |
| 20260504025211 | 42 | 324 | 0.0 | 0.0 | 0.00 | 0.00 | 0.00 | 78 | 1014.8 |
| 20260504024709 | 42 | 324 | 0.0 | 0.0 | 0.00 | 0.00 | 0.00 | 77 | 1014.6 |
| 20260504024205 | 42 | 318 | 0.0 | 0.0 | 0.00 | 0.00 | 0.00 | 78 | 1014.7 |
| 20260504023702 | 42 | 318 | 0.0 | 0.0 | 0.00 | 0.00 | 0.00 | 77 | 1014.9 |
| 20260504023158 | 43 | 318 | 0.0 | 0.0 | 0.00 | 0.00 | 0.00 | 76 | 1014.8 |
| 20260504022654 | 43 | 318 | 0.0 | 0.0 | 0.00 | 0.00 | 0.00 | 74 | 1014.5 |
| 20260504022150 | 43 | 318 | 0.0 | 0.0 | 0.00 | 0.00 | 0.00 | 73 | 1014.8 |
| 20260504021648 | 44 | 318 | 0.0 | 0.0 | 0.00 | 0.00 | 0.00 | 73 | 1014.5 |
| 20260504021145 | 44 | 318 | 0.0 | 0.0 | 0.00 | 0.00 | 0.00 | 72 | 1014.6 |
| 20260504020642 | 44 | 318 | 0.0 | 0.0 | 0.00 | 0.00 | 0.00 | 72 | 1014.6 |
| 20260504020137 | 45 | 318 | 0.0 | 0.0 | 0.00 | 0.00 | 0.00 | 71 | 1014.7 |
| 20260504015634 | 45 | 318 | 0.0 | 0.0 | 0.00 | 0.00 | 0.00 | 71 | 1014.6 |
| 20260504015131 | 45 | 318 | 0.0 | 0.0 | 0.00 | 0.00 | 0.00 | 70 | 1014.8 |
| 20260504014626 | 46 | 318 | 0.0 | 0.0 | 0.00 | 0.00 | 0.00 | 68 | 1014.4 |
| 20260504014124 | 46 | 318 | 0.0 | 0.0 | 0.00 | 0.00 | 0.00 | 67 | 1014.7 |
| 20260504013621 | 46 | 318 | 0.0 | 0.0 | 0.00 | 0.00 | 0.00 | 66 | 1014.5 |
| 20260504013118 | 47 | 318 | 0.0 | 0.0 | 0.00 | 0.00 | 0.00 | 65 | 1014.6 |
| 20260504012615 | 47 | 318 | 0.0 | 0.0 | 0.00 | 0.00 | 0.00 | 63 | 1014.5 |
| 20260504012113 | 48 | 318 | 0.0 | 0.0 | 0.00 | 0.00 | 0.00 | 62 | 1014.4 |
| 20260504011610 | 48 | 318 | 0.0 | 0.0 | 0.00 | 0.00 | 0.00 | 60 | 1014.3 |
| 20260504011106 | 49 | 318 | 0.0 | 0.0 | 0.00 | 0.00 | 0.00 | 58 | 1014.4 |
| 20260504010602 | 50 | 318 | 0.0 | 0.0 | 0.00 | 0.00 | 0.00 | 55 | 1014.4 |
| 20260504010058 | 50 | 318 | 0.0 | 0.0 | 0.00 | 0.00 | 0.00 | 54 | 1014.4 |
| 20260504005555 | 51 | 318 | 0.0 | 0.0 | 0.00 | 0.00 | 0.00 | 53 | 1014.3 |
| 20260504005052 | 53 | 318 | 0.0 | 0.0 | 0.00 | 0.00 | 0.00 | 49 | 1014.4 |
| 20260504004550 | 53 | 318 | 0.0 | 0.0 | 0.00 | 0.00 | 0.00 | 46 | 1014.4 |
| 20260504004047 | 53 | 318 | 0.9 | 0.9 | 0.00 | 0.00 | 0.00 | 45 | 1014.3 |
| 20260504003543 | 54 | 328 | 0.0 | 0.0 | 0.00 | 0.00 | 0.00 | 44 | 1014.4 |
| 20260504003040 | 54 | 327 | 0.9 | 0.9 | 0.00 | 0.00 | 0.00 | 44 | 1014.3 |
| 20260504002537 | 54 | 328 | 2.6 | 2.6 | 0.00 | 0.00 | 0.00 | 43 | 1014.3 |
| 20260504002034 | 55 | 320 | 1.7 | 1.7 | 0.00 | 0.00 | 0.00 | 43 | 1014.2 |
| 20260504001532 | 55 | 325 | 0.9 | 0.9 | 0.00 | 0.00 | 0.00 | 43 | 1014.4 |
| 20260504001028 | 55 | 299 | 1.7 | 2.6 | 0.00 | 0.00 | 0.00 | 42 | 1014.4 |
| 20260504000525 | 55 | 349 | 1.7 | 1.7 | 0.00 | 0.00 | 0.00 | 42 | 1014.0 |
| 20260504000023 | 56 | 320 | 1.7 | 1.7 | 0.00 | 0.00 | 0.00 | 41 | 1014.3 |
| 20260503235521 | 56 | 310 | 1.7 | 2.6 | 0.00 | 0.00 | 0.00 | 41 | 1014.3 |
| 20260503235017 | 56 | 348 | 0.9 | 1.7 | 0.00 | 0.00 | 0.00 | 41 | 1014.0 |
| 20260503234515 | 56 | 277 | 1.7 | 2.6 | 0.00 | 0.00 | 0.00 | 40 | 1014.1 |
| 20260503234013 | 57 | 305 | 2.6 | 2.6 | 0.00 | 0.00 | 0.00 | 41 | 1014.5 |
| 20260503233509 | 57 | 303 | 3.5 | 4.3 | 0.00 | 0.00 | 0.00 | 40 | 1014.2 |
| 20260503233005 | 57 | 321 | 0.9 | 1.7 | 0.00 | 0.00 | 0.00 | 40 | 1014.3 |
| 20260503232502 | 57 | 291 | 3.5 | 4.3 | 0.00 | 0.00 | 0.00 | 39 | 1014.3 |
| 20260503232000 | 58 | 304 | 2.6 | 2.6 | 0.00 | 0.00 | 0.00 | 38 | 1014.2 |
| 20260503231457 | 58 | 328 | 0.9 | 0.9 | 0.00 | 0.00 | 0.00 | 39 | 1014.3 |
| 20260503230954 | 58 | 321 | 0.9 | 1.7 | 0.00 | 0.00 | 0.00 | 38 | 1014.1 |
| 20260503230450 | 58 | 278 | 3.5 | 5.2 | 0.00 | 0.00 | 0.00 | 38 | 1014.2 |
| 20260503225948 | 58 | 306 | 3.5 | 5.2 | 0.00 | 0.00 | 0.00 | 38 | 1014.4 |
| 20260503225445 | 58 | 275 | 4.3 | 6.1 | 0.00 | 0.00 | 0.00 | 38 | 1014.3 |
| 20260503224940 | 58 | 350 | 3.5 | 4.3 | 0.00 | 0.00 | 0.00 | 38 | 1014.3 |
| 20260503224437 | 58 | 336 | 2.6 | 2.6 | 0.00 | 0.00 | 0.00 | 37 | 1014.3 |
| 20260503223935 | 58 | 350 | 3.5 | 5.2 | 0.00 | 0.00 | 0.00 | 37 | 1014.4 |
| 20260503223433 | 58 | 327 | 2.6 | 4.3 | 0.00 | 0.00 | 0.00 | 37 | 1014.4 |
| 20260503222928 | 59 | 275 | 4.3 | 5.2 | 0.00 | 0.00 | 0.00 | 36 | 1014.5 |
| 20260503222427 | 59 | 340 | 0.9 | 0.9 | 0.00 | 0.00 | 0.00 | 36 | 1014.5 |
| 20260503221925 | 60 | 307 | 4.3 | 7.0 | 0.00 | 0.00 | 0.00 | 35 | 1014.5 |
| 20260503221423 | 59 | 306 | 5.2 | 7.0 | 0.00 | 0.00 | 0.00 | 36 | 1014.6 |
| 20260503220919 | 60 | 332 | 5.2 | 7.0 | 0.00 | 0.00 | 0.00 | 35 | 1014.5 |
| 20260503220415 | 60 | 324 | 2.6 | 2.6 | 0.00 | 0.00 | 0.00 | 35 | 1014.4 |
| 20260503215913 | 59 | 209 | 4.3 | 6.1 | 0.00 | 0.00 | 0.00 | 36 | 1014.2 |
| 20260503215410 | 60 | 336 | 0.9 | 0.9 | 0.00 | 0.00 | 0.00 | 37 | 1014.4 |
| 20260503214908 | 59 | 351 | 0.0 | 0.0 | 0.00 | 0.00 | 0.00 | 39 | 1014.4 |
| 20260503214404 | 59 | 284 | 3.5 | 4.3 | 0.00 | 0.00 | 0.00 | 37 | 1014.4 |
| 20260503213902 | 60 | 333 | 4.3 | 5.2 | 0.00 | 0.00 | 0.00 | 35 | 1014.4 |
| 20260503213400 | 59 | 305 | 3.5 | 4.3 | 0.00 | 0.00 | 0.00 | 37 | 1014.3 |
| 20260503212856 | 60 | 296 | 6.1 | 8.7 | 0.00 | 0.00 | 0.00 | 36 | 1014.2 |
| 20260503212354 | 60 | 285 | 2.6 | 2.6 | 0.00 | 0.00 | 0.00 | 35 | 1014.3 |
| 20260503211851 | 59 | 253 | 6.1 | 7.8 | 0.00 | 0.00 | 0.00 | 36 | 1014.2 |
| 20260503211348 | 60 | 330 | 4.3 | 7.0 | 0.00 | 0.00 | 0.00 | 34 | 1014.3 |
| 20260503210843 | 59 | 307 | 1.7 | 4.3 | 0.00 | 0.00 | 0.00 | 37 | 1014.3 |
| 20260503210340 | 59 | 347 | 0.9 | 0.9 | 0.00 | 0.00 | 0.00 | 37 | 1014.3 |
| 20260503205835 | 59 | 312 | 5.2 | 7.0 | 0.00 | 0.00 | 0.00 | 35 | 1014.4 |
| 20260503205332 | 61 | 322 | 3.5 | 5.2 | 0.00 | 0.00 | 0.00 | 35 | 1014.4 |
| 20260503204829 | 60 | 245 | 4.3 | 6.1 | 0.00 | 0.00 | 0.00 | 34 | 1014.5 |
| 20260503204326 | 60 | 307 | 3.5 | 5.2 | 0.00 | 0.00 | 0.00 | 35 | 1014.4 |
| 20260503203823 | 60 | 0 | 5.2 | 7.0 | 0.00 | 0.00 | 0.00 | 34 | 1014.5 |
| 20260503203321 | 59 | 300 | 3.5 | 5.2 | 0.00 | 0.00 | 0.00 | 34 | 1014.3 |
| 20260503202817 | 59 | 337 | 3.5 | 5.2 | 0.00 | 0.00 | 0.00 | 36 | 1014.6 |
| 20260503202315 | 60 | 322 | 3.5 | 4.3 | 0.00 | 0.00 | 0.00 | 36 | 1014.7 |
| 20260503201813 | 60 | 3 | 0.9 | 1.7 | 0.00 | 0.00 | 0.00 | 36 | 1014.8 |
| 20260503201310 | 59 | 336 | 0.9 | 1.7 | 0.00 | 0.00 | 0.00 | 38 | 1014.6 |
| 20260503200808 | 59 | 305 | 4.3 | 6.1 | 0.00 | 0.00 | 0.00 | 36 | 1014.8 |
| 20260503200303 | 59 | 202 | 3.5 | 4.3 | 0.00 | 0.00 | 0.00 | 38 | 1014.7 |
| 20260503195801 | 59 | 324 | 3.5 | 5.2 | 0.00 | 0.00 | 0.00 | 36 | 1014.9 |
| 20260503195257 | 60 | 323 | 7.8 | 9.6 | 0.00 | 0.00 | 0.00 | 34 | 1015.0 |
| 20260503194755 | 59 | 284 | 2.6 | 4.3 | 0.00 | 0.00 | 0.00 | 36 | 1015.1 |
| 20260503194250 | 62 | 299 | 2.6 | 2.6 | 0.00 | 0.00 | 0.00 | 33 | 1015.2 |
| 20260503193741 | 60 | 313 | 4.3 | 6.1 | 0.00 | 0.00 | 0.00 | 36 | 1015.2 |
| 20260503193238 | 57 | 256 | 3.5 | 5.2 | 0.00 | 0.00 | 0.00 | 36 | 1015.5 |
| 20260503192733 | 58 | 329 | 1.7 | 4.3 | 0.00 | 0.00 | 0.00 | 37 | 1015.6 |
| 20260503192228 | 60 | 275 | 2.6 | 4.3 | 0.00 | 0.00 | 0.00 | 36 | 1015.6 |
| 20260503191726 | 58 | 317 | 2.6 | 2.6 | 0.00 | 0.00 | 0.00 | 37 | 1015.5 |
| 20260503191223 | 59 | 265 | 6.1 | 7.0 | 0.00 | 0.00 | 0.00 | 36 | 1015.8 |
| 20260503190720 | 57 | 278 | 1.7 | 2.6 | 0.00 | 0.00 | 0.00 | 39 | 1015.8 |
| 20260503190216 | 58 | 270 | 4.3 | 5.2 | 0.00 | 0.00 | 0.00 | 36 | 1015.5 |
| 20260503185714 | 57 | 328 | 1.7 | 2.6 | 0.00 | 0.00 | 0.00 | 38 | 1015.9 |
| 20260503185209 | 58 | 287 | 2.6 | 2.6 | 0.00 | 0.00 | 0.00 | 36 | 1015.9 |
| 20260503184704 | 59 | 288 | 3.5 | 4.3 | 0.00 | 0.00 | 0.00 | 37 | 1015.8 |
| 20260503184200 | 60 | 15 | 1.7 | 2.6 | 0.00 | 0.00 | 0.00 | 39 | 1016.1 |
| 20260503183656 | 59 | 325 | 3.5 | 6.1 | 0.00 | 0.00 | 0.00 | 38 | 1016.1 |
| 20260503183154 | 56 | 343 | 2.6 | 2.6 | 0.00 | 0.00 | 0.00 | 40 | 1016.4 |
| 20260503182652 | 57 | 271 | 5.2 | 7.8 | 0.00 | 0.00 | 0.00 | 39 | 1016.3 |
| 20260503182150 | 60 | 315 | 0.9 | 1.7 | 0.00 | 0.00 | 0.00 | 38 | 1016.5 |
| 20260503181647 | 58 | 4 | 3.5 | 4.3 | 0.00 | 0.00 | 0.00 | 38 | 1016.1 |
| 20260503181144 | 58 | 321 | 3.5 | 5.2 | 0.00 | 0.00 | 0.00 | 37 | 1016.3 |
| 20260503180641 | 57 | 307 | 5.2 | 7.0 | 0.00 | 0.00 | 0.00 | 38 | 1016.6 |
| 20260503180139 | 56 | 318 | 3.5 | 5.2 | 0.00 | 0.00 | 0.00 | 39 | 1016.4 |
| 20260503175635 | 57 | 250 | 5.2 | 6.1 | 0.00 | 0.00 | 0.00 | 38 | 1016.7 |
| 20260503175132 | 58 | 7 | 3.5 | 7.0 | 0.00 | 0.00 | 0.00 | 40 | 1016.9 |
| 20260503174628 | 57 | 292 | 4.3 | 5.2 | 0.00 | 0.00 | 0.00 | 38 | 1016.7 |
| 20260503174126 | 57 | 201 | 6.1 | 9.6 | 0.00 | 0.00 | 0.00 | 37 | 1016.9 |
| 20260503173620 | 57 | 304 | 4.3 | 4.3 | 0.00 | 0.00 | 0.00 | 37 | 1017.0 |
| 20260503173117 | 56 | 306 | 3.5 | 7.0 | 0.00 | 0.00 | 0.00 | 38 | 1016.9 |
| 20260503172614 | 57 | 303 | 1.7 | 4.3 | 0.00 | 0.00 | 0.00 | 37 | 1016.9 |
| 20260503172112 | 57 | 256 | 2.6 | 4.3 | 0.00 | 0.00 | 0.00 | 36 | 1017.0 |
| 20260503171609 | 56 | 359 | 5.2 | 6.1 | 0.00 | 0.00 | 0.00 | 39 | 1016.7 |
| 20260503171105 | 56 | 300 | 3.5 | 5.2 | 0.00 | 0.00 | 0.00 | 37 | 1017.1 |
| 20260503170601 | 57 | 215 | 4.3 | 6.1 | 0.00 | 0.00 | 0.00 | 37 | 1017.1 |
| 20260503150954 | 53 | 268 | 0.9 | 0.9 | 0.00 | 0.00 | 0.00 | 43 | 1017.9 |
| 20260503150450 | 51 | 300 | 2.6 | 4.3 | 0.00 | 0.00 | 0.00 | 40 | 1018.0 |
| 20260503131344 | 44 | 327 | 0.9 | 1.7 | 0.00 | 0.00 | 0.00 | 69 | 1018.5 |
| 20260503130841 | 44 | 297 | 1.7 | 2.6 | 0.00 | 0.00 | 0.00 | 68 | 1018.6 |
| 20260503130338 | 43 | 337 | 0.0 | 0.9 | 0.00 | 0.00 | 0.00 | 72 | 1018.5 |
| 20260503110726 | 27 | 352 | 0.0 | 0.0 | 0.00 | 0.00 | 0.00 | 98 | 1018.0 |
| 20260503110223 | 28 | 352 | 0.0 | 0.0 | 0.00 | 0.00 | 0.00 | 98 | 1018.0 |
| 20260503100144 | 28 | 352 | 0.0 | 0.0 | 0.00 | 0.00 | 0.00 | 97 | 1017.5 |
| 20260503081538 | 30 | 352 | 0.0 | 0.0 | 0.00 | 0.00 | 0.00 | 96 | 1017.1 |
| 20260503081036 | 31 | 352 | 0.0 | 0.0 | 0.00 | 0.00 | 0.00 | 96 | 1017.2 |
| 20260503080532 | 31 | 352 | 0.0 | 0.0 | 0.00 | 0.00 | 0.00 | 96 | 1017.0 |
| 20260503072505 | 33 | 352 | 0.0 | 0.0 | 0.00 | 0.00 | 0.00 | 95 | 1017.0 |
| 20260503072003 | 33 | 352 | 0.0 | 0.0 | 0.00 | 0.00 | 0.00 | 95 | 1016.7 |
| 20260503071459 | 33 | 352 | 0.0 | 0.0 | 0.00 | 0.00 | 0.00 | 95 | 1016.7 |
| 20260503070955 | 33 | 352 | 0.0 | 0.0 | 0.00 | 0.00 | 0.00 | 95 | 1016.5 |
| 20260503070453 | 34 | 352 | 0.0 | 0.0 | 0.00 | 0.00 | 0.00 | 95 | 1016.7 |
| 20260503054906 | 33 | 352 | 0.0 | 0.0 | 0.00 | 0.00 | 0.00 | 95 | 1017.0 |
| 20260503054403 | 33 | 352 | 0.0 | 0.0 | 0.00 | 0.00 | 0.00 | 95 | 1016.9 |
| 20260503053901 | 33 | 352 | 0.0 | 0.0 | 0.00 | 0.00 | 0.00 | 95 | 1017.2 |
| 20260503053358 | 33 | 352 | 0.0 | 0.0 | 0.00 | 0.00 | 0.00 | 95 | 1017.2 |
| 20260503052854 | 33 | 352 | 0.0 | 0.0 | 0.00 | 0.00 | 0.00 | 95 | 1017.2 |
| 20260503052351 | 33 | 352 | 0.0 | 0.0 | 0.00 | 0.00 | 0.00 | 95 | 1017.0 |
| 20260503051848 | 33 | 352 | 0.0 | 0.0 | 0.00 | 0.00 | 0.00 | 95 | 1017.2 |
| 20260503051344 | 33 | 352 | 0.0 | 0.0 | 0.00 | 0.00 | 0.00 | 95 | 1017.2 |
| 20260503050841 | 33 | 352 | 0.0 | 0.0 | 0.00 | 0.00 | 0.00 | 95 | 1017.3 |
| 20260503050337 | 33 | 352 | 0.0 | 0.0 | 0.00 | 0.00 | 0.00 | 94 | 1017.2 |
| 20260503045835 | 33 | 352 | 0.0 | 0.0 | 0.00 | 0.00 | 0.00 | 94 | 1017.2 |
| 20260503045332 | 33 | 352 | 0.0 | 0.0 | 0.00 | 0.00 | 0.00 | 94 | 1017.2 |
| 20260503044829 | 33 | 352 | 0.0 | 0.0 | 0.00 | 0.00 | 0.00 | 94 | 1017.1 |
| 20260503044326 | 33 | 352 | 0.0 | 0.0 | 0.00 | 0.00 | 0.00 | 94 | 1017.2 |
| 20260503043823 | 33 | 352 | 0.0 | 0.0 | 0.00 | 0.00 | 0.00 | 94 | 1017.2 |
| 20260503043320 | 33 | 352 | 0.0 | 0.0 | 0.00 | 0.00 | 0.00 | 93 | 1017.3 |
| 20260503042816 | 34 | 352 | 0.0 | 0.0 | 0.00 | 0.00 | 0.00 | 93 | 1017.3 |
| 20260503042313 | 34 | 352 | 0.0 | 0.0 | 0.00 | 0.00 | 0.00 | 93 | 1017.2 |
| 20260503041809 | 34 | 352 | 0.0 | 0.0 | 0.00 | 0.00 | 0.00 | 92 | 1017.4 |
| 20260503041306 | 34 | 352 | 0.0 | 0.0 | 0.00 | 0.00 | 0.00 | 92 | 1017.3 |
| 20260503040804 | 35 | 352 | 0.0 | 0.0 | 0.00 | 0.00 | 0.00 | 92 | 1017.5 |
| 20260503040301 | 35 | 352 | 0.0 | 0.0 | 0.00 | 0.00 | 0.00 | 91 | 1017.0 |
| 20260503035758 | 35 | 352 | 0.0 | 0.0 | 0.00 | 0.00 | 0.00 | 91 | 1017.3 |
| 20260503035255 | 35 | 352 | 0.0 | 0.0 | 0.00 | 0.00 | 0.00 | 90 | 1017.3 |
| 20260503034752 | 36 | 352 | 0.0 | 0.0 | 0.00 | 0.00 | 0.00 | 90 | 1017.2 |
| 20260503034249 | 36 | 352 | 0.0 | 0.0 | 0.00 | 0.00 | 0.00 | 89 | 1017.3 |
| 20260503033747 | 36 | 352 | 0.0 | 0.0 | 0.00 | 0.00 | 0.00 | 89 | 1017.2 |
| 20260503033244 | 36 | 352 | 0.0 | 0.9 | 0.00 | 0.00 | 0.00 | 88 | 1017.2 |
| 20260503032742 | 37 | 352 | 0.0 | 0.0 | 0.00 | 0.00 | 0.00 | 88 | 1017.1 |
| 20260503032241 | 37 | 352 | 0.0 | 0.0 | 0.00 | 0.00 | 0.00 | 88 | 1017.0 |
| 20260503031737 | 37 | 352 | 0.0 | 0.0 | 0.00 | 0.00 | 0.00 | 88 | 1017.3 |
| 20260503031236 | 37 | 352 | 0.0 | 0.0 | 0.00 | 0.00 | 0.00 | 88 | 1017.3 |
| 20260503030731 | 36 | 352 | 0.0 | 0.0 | 0.00 | 0.00 | 0.00 | 87 | 1017.4 |